DW1824 Weather Reports


Display with metric or nautical units.
time (UTC)temp
F
wind
direction
speed
MPH
gust
MPH
rain 1hr
in
rain 24hr
in
rain mn
in
humidity
%
barometer
mb
20181215161316 53 333 8.0 16.0 0.00 0.00 0.00 54 1024.4
20181215160819 52 301 9.0 16.0 0.00 0.00 0.00 54 1024.5
20181215160312 52 297 9.0 13.0 0.00 0.00 0.00 55 1024.5
20181215155821 51 329 9.0 16.0 0.00 0.00 0.00 54 1024.6
20181215155311 51 288 10.0 16.0 0.00 0.00 0.00 55 1024.5
20181215154818 51 306 11.0 18.0 0.00 0.00 0.00 54 1024.6
20181215154310 51 293 9.0 17.0 0.00 0.00 0.00 55 1024.6
20181215153815 50 279 11.0 16.0 0.00 0.00 0.00 55 1024.6
20181215153312 50 299 8.0 15.0 0.00 0.00 0.00 56 1024.6
20181215152821 50 310 10.0 16.0 0.00 0.00 0.00 56 1024.7
20181215152311 49 298 10.0 16.0 0.00 0.00 0.00 56 1024.6
20181215151817 49 302 11.0 16.0 0.00 0.00 0.00 56 1024.5
20181215151310 49 292 11.0 16.0 0.00 0.00 0.00 56 1024.4
20181215150816 49 281 8.0 15.0 0.00 0.00 0.00 59 1024.3
20181215150308 48 268 11.0 17.0 0.00 0.00 0.00 57 1024.1
20181215145813 48 336 11.0 18.0 0.00 0.00 0.00 58 1024.1
20181215145303 47 284 11.0 18.0 0.00 0.00 0.00 58 1024.1
20181215144813 47 305 12.0 17.0 0.00 0.00 0.00 59 1024.0
20181215144307 47 295 9.0 14.0 0.00 0.00 0.00 60 1024.0
20181215143812 47 290 8.0 12.0 0.00 0.00 0.00 61 1024.0
20181215143305 46 273 7.0 12.0 0.00 0.00 0.00 63 1024.0
20181215142813 46 303 7.0 12.0 0.00 0.00 0.00 64 1023.9
20181215142303 46 268 6.0 13.0 0.00 0.00 0.00 66 1023.6
20181215141809 45 280 9.0 13.0 0.00 0.00 0.00 65 1023.5
20181215141321 45 308 7.0 11.0 0.00 0.00 0.00 66 1023.5
20181215140808 45 293 6.0 10.0 0.00 0.00 0.00 67 1023.5
20181215140305 44 268 6.0 10.0 0.00 0.00 0.00 68 1023.5
20181215135810 44 293 4.0 7.0 0.00 0.00 0.00 69 1023.5
20181215135321 44 278 4.0 8.0 0.00 0.00 0.00 70 1023.5
20181215134808 44 284 4.0 8.0 0.00 0.00 0.00 69 1023.5
20181215134320 44 276 4.0 10.0 0.00 0.00 0.00 69 1023.5
20181215133806 44 281 5.0 10.0 0.00 0.00 0.00 69 1023.4
20181215133319 44 287 6.0 9.0 0.00 0.00 0.00 69 1023.3
20181215132805 44 288 5.0 9.0 0.00 0.00 0.00 70 1023.2
20181215132315 44 274 5.0 9.0 0.00 0.00 0.00 70 1023.1
20181215131804 44 268 5.0 9.0 0.00 0.00 0.00 70 1023.0
20181215131316 44 281 5.0 8.0 0.00 0.00 0.00 70 1022.9
20181215130802 44 277 4.0 8.0 0.00 0.00 0.00 70 1022.8
20181215130315 44 303 5.0 8.0 0.00 0.00 0.00 70 1022.7
20181215125819 44 299 5.0 8.0 0.00 0.00 0.00 70 1022.7
20181215125310 44 293 4.0 7.0 0.00 0.00 0.00 70 1022.5
20181215124817 45 272 4.0 7.0 0.00 0.00 0.00 70 1022.4
20181215124309 45 291 4.0 8.0 0.00 0.00 0.00 69 1022.4
20181215123816 45 305 5.0 9.0 0.00 0.00 0.00 69 1022.3
20181215123313 45 292 6.0 9.0 0.00 0.00 0.00 70 1022.2
20181215122819 45 298 5.0 9.0 0.00 0.00 0.00 70 1022.0
20181215122309 45 293 6.0 8.0 0.00 0.00 0.00 71 1021.9
20181215121815 45 277 6.0 9.0 0.00 0.00 0.00 71 1021.8
20181215121308 45 311 5.0 10.0 0.00 0.00 0.00 72 1021.7
20181215120815 45 303 6.0 9.0 0.00 0.00 0.00 72 1021.6
20181215120307 46 295 6.0 9.0 0.00 0.00 0.00 72 1021.5
20181215115814 46 305 6.0 9.0 0.00 0.00 0.00 72 1021.6
20181215115308 46 292 6.0 9.0 0.00 0.00 0.00 72 1021.5
20181215114814 46 302 5.0 9.0 0.00 0.00 0.00 72 1021.4
20181215114307 46 268 6.0 9.0 0.00 0.00 0.00 72 1021.5
20181215113814 46 320 6.0 11.0 0.00 0.00 0.00 72 1021.4
20181215113306 47 314 8.0 11.0 0.00 0.00 0.00 72 1021.3
20181215112813 47 321 7.0 11.0 0.00 0.00 0.00 72 1021.3
20181215112306 47 312 6.0 10.0 0.00 0.00 0.00 73 1021.4
20181215111810 47 308 5.0 8.0 0.00 0.00 0.00 73 1021.4
20181215111303 47 306 5.0 10.0 0.00 0.00 0.00 74 1021.2
20181215110813 47 292 6.0 11.0 0.00 0.00 0.00 74 1021.1
20181215110306 47 295 7.0 11.0 0.00 0.00 0.00 73 1021.1
20181215105811 47 289 7.0 11.0 0.00 0.00 0.00 74 1021.1
20181215105322 47 310 5.0 11.0 0.00 0.00 0.00 75 1021.0
20181215104807 47 289 6.0 11.0 0.00 0.00 0.00 75 1020.8
20181215104320 47 276 7.0 11.0 0.00 0.00 0.00 76 1020.8
20181215103806 47 329 7.0 11.0 0.00 0.00 0.00 77 1020.8
20181215103319 47 289 7.0 11.0 0.00 0.00 0.00 77 1020.8
20181215102823 47 304 8.0 11.0 0.00 0.00 0.00 78 1020.8
20181215102318 47 294 7.0 11.0 0.00 0.00 0.00 79 1020.9
20181215101803 48 274 5.0 10.0 0.00 0.00 0.00 79 1021.0
20181215101317 48 270 6.0 11.0 0.00 0.00 0.00 80 1021.0
20181215100803 48 278 8.0 11.0 0.00 0.00 0.00 80 1020.9
20181215100316 48 309 7.0 10.0 0.00 0.00 0.00 81 1020.9
20181215095819 48 283 6.0 9.0 0.00 0.00 0.00 81 1020.9
20181215095309 48 287 6.0 9.0 0.00 0.00 0.00 82 1020.9
20181215094814 48 241 6.0 9.0 0.00 0.00 0.00 82 1021.0
20181215094307 48 275 6.0 9.0 0.00 0.00 0.00 81 1020.9
20181215093816 49 283 5.0 10.0 0.00 0.00 0.00 81 1020.9
20181215093309 49 297 6.0 10.0 0.00 0.00 0.00 81 1020.7
20181215092816 49 287 7.0 10.0 0.00 0.00 0.00 81 1020.7
20181215092306 50 258 6.0 10.0 0.00 0.00 0.00 81 1020.7
20181215091812 50 282 6.0 9.0 0.00 0.00 0.00 81 1020.6
20181215091304 50 286 5.0 8.0 0.00 0.00 0.00 80 1020.6
20181215090812 51 272 5.0 8.0 0.00 0.00 0.00 80 1020.6
20181215090305 51 297 4.0 8.0 0.00 0.00 0.00 79 1020.7
20181215085811 51 281 4.0 8.0 0.00 0.00 0.00 80 1020.6
20181215085306 51 274 5.0 8.0 0.00 0.00 0.00 79 1020.7
20181215084811 51 293 3.0 8.0 0.00 0.00 0.00 80 1020.8
20181215084304 51 310 4.0 8.0 0.00 0.00 0.00 80 1020.7
20181215083811 51 314 5.0 9.0 0.00 0.00 0.00 80 1020.6
20181215083303 51 310 5.0 10.0 0.00 0.00 0.00 79 1020.6
20181215082810 51 299 5.0 10.0 0.00 0.00 0.00 79 1020.6
20181215082320 51 312 5.0 10.0 0.00 0.00 0.00 79 1020.7
20181215081808 51 308 6.0 11.0 0.00 0.00 0.00 79 1020.8
20181215081304 51 318 7.0 12.0 0.00 0.00 0.00 79 1020.8
20181215080810 52 326 6.0 12.0 0.00 0.00 0.00 78 1020.8
20181215080303 52 336 5.0 11.0 0.00 0.00 0.00 78 1020.8
20181215075812 52 322 5.0 14.0 0.00 0.00 0.00 78 1020.9
20181215075305 52 305 7.0 14.0 0.00 0.00 0.00 78 1021.1
20181215074809 52 313 5.0 14.0 0.00 0.00 0.00 77 1020.9
20181215074302 52 349 7.0 21.0 0.00 0.00 0.00 77 1020.9
20181215073808 52 310 10.0 21.0 0.00 0.00 0.00 77 1021.1
20181215073321 52 301 8.0 23.0 0.00 0.00 0.00 77 1021.1
20181215072814 52 302 13.0 23.0 0.00 0.00 0.00 78 1020.9
20181215072305 52 345 6.0 11.0 0.00 0.00 0.00 78 1021.0
20181215071810 52 325 7.0 11.0 0.00 0.00 0.00 78 1020.9
20181215071303 52 293 7.0 11.0 0.00 0.00 0.00 78 1020.8
20181215070810 52 320 6.0 10.0 0.00 0.00 0.00 78 1020.8
20181215070303 52 312 4.0 11.0 0.00 0.00 0.00 78 1020.9
20181215065811 52 299 6.0 13.0 0.00 0.00 0.00 78 1020.9
20181215065321 52 333 6.0 13.0 0.00 0.00 0.00 78 1020.9
20181215064808 52 293 7.0 14.0 0.00 0.00 0.00 78 1020.8
20181215064304 52 330 8.0 14.0 0.00 0.00 0.00 77 1020.7
20181215063811 52 302 7.0 18.0 0.00 0.00 0.00 78 1020.7
20181215063304 52 332 9.0 18.0 0.00 0.00 0.00 77 1020.7
20181215062813 52 295 8.0 14.0 0.00 0.00 0.00 78 1020.8
20181215062304 52 294 9.0 13.0 0.00 0.00 0.00 78 1020.8
20181215061810 52 282 7.0 13.0 0.00 0.00 0.00 78 1020.8
20181215061303 52 260 7.0 13.0 0.00 0.00 0.00 78 1020.8
20181215060810 52 308 7.0 14.0 0.00 0.00 0.00 78 1020.7
20181215060307 52 316 8.0 14.0 0.00 0.00 0.00 78 1020.8
20181215055816 52 293 7.0 14.0 0.00 0.00 0.00 78 1020.7
20181215055306 52 298 8.0 12.0 0.00 0.00 0.00 78 1020.7
20181215054812 52 320 8.0 13.0 0.00 0.00 0.00 78 1020.7
20181215054305 51 316 9.0 13.0 0.00 0.00 0.00 78 1020.6
20181215053811 52 308 9.0 14.0 0.00 0.00 0.00 78 1020.6
20181215053303 52 314 9.0 14.0 0.00 0.00 0.00 78 1020.6
20181215052812 51 278 7.0 12.0 0.00 0.00 0.00 79 1020.6
20181215052302 52 326 7.0 14.0 0.00 0.00 0.00 78 1020.5
20181215051812 51 308 8.0 15.0 0.00 0.00 0.00 79 1020.5
20181215051305 51 302 8.0 15.0 0.00 0.00 0.00 79 1020.3
20181215050811 51 294 10.0 14.0 0.00 0.00 0.00 79 1020.3
20181215050304 51 303 8.0 14.0 0.00 0.00 0.00 79 1020.2
20181215045814 51 318 9.0 17.0 0.00 0.00 0.00 79 1020.2
20181215045304 51 323 11.0 17.0 0.00 0.00 0.00 79 1020.2
20181215044809 51 347 7.0 16.0 0.00 0.00 0.00 79 1020.2
20181215044301 51 302 9.0 16.0 0.00 0.00 0.00 80 1020.2
20181215043809 51 307 10.0 17.0 0.00 0.00 0.00 80 1020.2
20181215043306 51 309 11.0 18.0 0.00 0.00 0.00 79 1020.1
20181215042815 51 303 10.0 18.0 0.00 0.00 0.00 79 1020.1
20181215042305 51 297 10.0 16.0 0.00 0.00 0.00 79 1019.9
20181215041812 51 280 9.0 18.0 0.00 0.00 0.00 80 1019.9
20181215041305 51 316 12.0 18.0 0.00 0.00 0.00 80 1020.1
20181215040811 51 332 11.0 18.0 0.00 0.00 0.00 80 1020.1
20181215040304 51 310 11.0 20.0 0.00 0.00 0.00 81 1020.1
20181215035813 51 312 11.0 20.0 0.00 0.00 0.00 81 1019.9
20181215035307 51 295 11.0 19.0 0.00 0.00 0.00 81 1019.8
20181215034814 51 297 13.0 21.0 0.00 0.00 0.00 81 1019.7
20181215034307 51 312 13.0 21.0 0.00 0.00 0.00 82 1019.8
20181215033814 51 296 10.0 21.0 0.00 0.00 0.00 82 1019.8
20181215033307 51 291 12.0 26.0 0.00 0.00 0.00 82 1019.9
20181215032816 51 310 15.0 26.0 0.00 0.00 0.00 82 1019.9
20181215032307 51 269 12.0 21.0 0.00 0.00 0.00 82 1020.1
20181215031813 51 323 11.0 22.0 0.00 0.00 0.00 82 1020.1
20181215031306 50 315 13.0 22.0 0.00 0.00 0.00 82 1020.1
20181215030814 50 295 12.0 21.0 0.00 0.00 0.00 82 1020.1
20181215030307 50 297 13.0 21.0 0.00 0.00 0.00 82 1019.9
20181215025816 50 311 12.0 19.0 0.00 0.00 0.00 82 1019.7
20181215025307 50 304 12.0 19.0 0.00 0.00 0.00 82 1019.7
20181215024814 50 308 10.0 19.0 0.00 0.00 0.00 82 1019.6
20181215024307 50 321 12.0 19.0 0.00 0.00 0.00 82 1019.8
20181215023813 50 321 9.0 22.0 0.00 0.00 0.00 82 1019.7
20181215023306 50 330 15.0 22.0 0.00 0.00 0.00 82 1019.7
20181215022816 50 331 14.0 21.0 0.00 0.00 0.00 83 1019.6
20181215022310 50 316 11.0 20.0 0.00 0.00 0.00 83 1019.7
20181215021815 50 323 10.0 20.0 0.00 0.00 0.00 83 1019.6
20181215021308 50 282 13.0 21.0 0.00 0.00 0.00 83 1019.6
20181215020813 49 12 11.0 21.0 0.00 0.00 0.00 83 1019.5
20181215020305 49 345 10.0 20.0 0.00 0.00 0.00 83 1019.5
20181215015813 49 354 14.0 20.0 0.00 0.00 0.00 83 1019.6
20181215015304 49 330 12.0 19.0 0.00 0.00 0.00 83 1019.5
20181215014811 49 304 10.0 19.0 0.00 0.00 0.00 84 1019.6
20181215014308 49 298 12.0 21.0 0.00 0.00 0.00 84 1019.7
20181215013814 49 283 10.0 22.0 0.00 0.00 0.00 84 1019.7
20181215013307 49 343 11.0 23.0 0.00 0.00 0.00 84 1019.7
20181215012817 49 299 16.0 23.0 0.00 0.00 0.00 84 1019.7
20181215012309 49 280 14.0 21.0 0.00 0.00 0.00 84 1019.8
20181215011824 49 293 14.0 23.0 0.00 0.00 0.00 84 1019.8
20181215011316 49 324 13.0 23.0 0.00 0.00 0.00 84 1019.8
20181215010820 49 328 8.0 20.0 0.00 0.00 0.00 84 1019.8
20181215010312 49 311 11.0 18.0 0.00 0.00 0.00 83 1019.8
20181215005804 49 308 13.0 17.0 0.00 0.00 0.00 83 1019.8
20181215005316 49 326 10.0 20.0 0.00 0.00 0.00 82 1019.9
20181215004820 49 304 15.0 21.0 0.00 0.00 0.00 82 1019.9
20181215004312 49 280 13.0 18.0 0.00 0.00 0.00 82 1019.8
20181215003819 49 302 11.0 19.0 0.00 0.00 0.00 82 1019.9
20181215003311 49 291 13.0 20.0 0.00 0.00 0.00 81 1020.0
20181215002818 49 295 13.0 20.0 0.00 0.00 0.00 81 1020.0
20181215002308 49 280 11.0 21.0 0.00 0.00 0.00 81 1019.9
20181215001815 49 303 11.0 21.0 0.00 0.00 0.00 81 1019.9
20181215001311 49 269 10.0 19.0 0.00 0.00 0.00 80 1019.9
20181215000817 49 330 9.0 18.0 0.00 0.00 0.00 80 1019.9
20181215000309 49 295 13.0 18.0 0.00 0.00 0.00 80 1019.8
20181214235818 49 303 12.0 18.0 0.00 0.00 0.00 80 1019.7
20181214235309 49 314 12.0 18.0 0.00 0.00 0.00 80 1019.6
20181214234814 49 295 9.0 21.0 0.00 0.00 0.00 80 1019.5
20181214234307 49 295 12.0 21.0 0.00 0.00 0.00 79 1019.4
20181214233814 49 293 12.0 17.0 0.00 0.00 0.00 79 1019.4
20181214233306 49 304 11.0 18.0 0.00 0.00 0.00 79 1019.3
20181214232819 49 280 11.0 20.0 0.00 0.00 0.00 79 1019.2
20181214232309 49 289 11.0 20.0 0.00 0.00 0.00 79 1019.0
20181214231816 49 311 12.0 19.0 0.00 0.00 0.00 79 1019.0
20181214231309 49 287 12.0 19.0 0.00 0.00 0.00 78 1019.0
20181214230816 49 297 11.0 20.0 0.00 0.00 0.00 78 1018.9
20181214230309 49 298 12.0 24.0 0.00 0.00 0.00 78 1018.8
20181214225818 49 296 14.0 24.0 0.00 0.00 0.00 78 1018.7
20181214225308 49 308 13.0 20.0 0.00 0.00 0.00 78 1018.7
20181214224814 49 297 13.0 24.0 0.00 0.00 0.00 78 1018.7
20181214224310 49 291 16.0 25.0 0.00 0.00 0.00 77 1018.6
20181214223816 49 283 15.0 25.0 0.00 0.00 0.00 77 1018.4
20181214223309 49 301 15.0 22.0 0.00 0.00 0.00 77 1018.3
20181214222818 49 316 14.0 23.0 0.00 0.00 0.00 78 1018.3
20181214222309 49 310 17.0 23.0 0.00 0.00 0.00 78 1018.1
20181214221814 49 316 12.0 22.0 0.00 0.00 0.00 78 1018.1
20181214221306 49 299 12.0 24.0 0.00 0.00 0.00 78 1018.0
20181214220811 49 305 13.0 24.0 0.00 0.00 0.00 78 1018.0
20181214220308 49 296 12.0 18.0 0.00 0.00 0.00 78 1018.0
20181214215815 49 289 11.0 25.0 0.00 0.00 0.00 77 1018.0
20181214215304 49 288 15.0 25.0 0.00 0.00 0.00 77 1017.9
20181214214812 49 307 16.0 24.0 0.00 0.00 0.00 77 1017.8
20181214214305 49 314 15.0 26.0 0.00 0.00 0.00 77 1017.6
20181214213812 49 309 15.0 24.0 0.00 0.00 0.00 76 1017.5
20181214213304 49 297 14.0 23.0 0.00 0.00 0.00 77 1017.6
20181214212813 49 310 15.0 25.0 0.00 0.00 0.00 76 1017.5
20181214212303 49 293 11.0 25.0 0.00 0.00 0.00 76 1017.5
20181214211813 49 298 14.0 24.0 0.00 0.00 0.00 77 1017.5
20181214211306 49 280 14.0 24.0 0.00 0.00 0.00 76 1017.3
20181214210813 49 297 15.0 22.0 0.00 0.00 0.00 76 1017.3
20181214210305 49 293 13.0 23.0 0.00 0.00 0.00 76 1017.1
20181214205814 49 295 14.0 24.0 0.00 0.00 0.00 76 1017.1
20181214205305 49 303 15.0 25.0 0.00 0.00 0.00 76 1017.1
20181214204810 49 293 13.0 27.0 0.00 0.00 0.00 76 1017.0
20181214204303 48 310 16.0 27.0 0.00 0.00 0.00 76 1016.8
20181214203810 49 295 16.0 24.0 0.00 0.00 0.00 76 1016.8
20181214203307 49 280 12.0 24.0 0.00 0.00 0.00 76 1016.7
20181214202811 48 284 10.0 23.0 0.00 0.00 0.00 76 1016.6
20181214202321 48 282 12.0 20.0 0.00 0.00 0.00 76 1016.6
20181214201807 49 262 13.0 22.0 0.00 0.00 0.00 76 1016.6
20181214201320 49 294 12.0 24.0 0.00 0.00 0.00 76 1016.5
20181214200807 48 304 15.0 24.0 0.00 0.00 0.00 77 1016.5
20181214200320 48 284 15.0 22.0 0.00 0.00 0.00 77 1016.5
20181214195809 48 280 14.0 23.0 0.00 0.00 0.00 77 1016.7
20181214195303 48 286 12.0 23.0 0.00 0.00 0.00 77 1016.7
20181214194808 48 284 13.0 24.0 0.00 0.00 0.00 76 1016.7
20181214194321 48 292 15.0 26.0 0.00 0.00 0.00 76 1016.6
20181214193807 48 293 14.0 26.0 0.00 0.00 0.00 76 1016.7
20181214193320 48 320 12.0 22.0 0.00 0.00 0.00 76 1016.7
20181214192808 48 278 10.0 22.0 0.00 0.00 0.00 77 1016.8
20181214192319 48 287 14.0 23.0 0.00 0.00 0.00 76 1016.9
20181214191805 48 272 16.0 23.0 0.00 0.00 0.00 76 1016.9
20181214191319 48 290 13.0 21.0 0.00 0.00 0.00 76 1016.9
20181214190809 48 271 13.0 21.0 0.00 0.00 0.00 75 1017.0
20181214190322 48 258 13.0 23.0 0.00 0.00 0.00 76 1017.1
20181214185809 48 322 12.0 30.0 0.00 0.00 0.00 76 1017.2
20181214185319 48 278 17.0 26.0 0.00 0.00 0.00 75 1017.2
20181214184803 48 274 14.0 26.0 0.00 0.00 0.00 75 1017.1
20181214184315 48 308 10.0 24.0 0.00 0.00 0.00 75 1017.1
20181214183802 48 298 16.0 24.0 0.00 0.00 0.00 75 1017.1
20181214183315 48 279 12.0 24.0 0.00 0.00 0.00 77 1017.1
20181214182825 48 304 17.0 30.0 0.00 0.00 0.00 76 1017.2
20181214182319 48 311 16.0 30.0 0.00 0.00 0.00 76 1017.2
20181214181805 48 288 14.0 24.0 0.00 0.00 0.00 77 1017.3
20181214181318 48 285 12.0 23.0 0.00 0.00 0.00 77 1017.4
20181214180804 48 295 11.0 22.0 0.00 0.00 0.00 77 1017.5
20181214180318 48 289 15.0 21.0 0.00 0.00 0.00 76 1017.5
20181214175805 48 289 11.0 21.0 0.00 0.00 0.00 77 1017.5
20181214175315 48 285 12.0 21.0 0.00 0.00 0.00 77 1017.4
20181214174821 48 268 13.0 21.0 0.00 0.00 0.00 76 1017.5
20181214174314 48 284 14.0 22.0 0.00 0.00 0.00 76 1017.5
20181214173804 48 287 12.0 22.0 0.00 0.00 0.00 76 1017.5
20181214173317 48 301 9.0 21.0 0.00 0.00 0.00 77 1017.5
20181214172805 48 294 12.0 23.0 0.00 0.00 0.00 76 1017.5
20181214172315 48 306 15.0 21.0 0.00 0.00 0.00 77 1017.5
20181214171819 48 300 9.0 20.0 0.00 0.00 0.00 77 1017.7
20181214171312 48 314 12.0 20.0 0.00 0.00 0.00 77 1017.6
20181214170817 48 313 9.0 23.0 0.00 0.00 0.00 77 1017.7
20181214170309 48 307 17.0 23.0 0.00 0.00 0.00 76 1017.7
20181214165817 48 311 14.0 20.0 0.00 0.00 0.00 77 1017.7
20181214165311 48 318 11.0 18.0 0.00 0.00 0.00 77 1017.7
20181214164816 48 297 11.0 22.0 0.00 0.00 0.00 78 1017.8
20181214164309 48 292 14.0 21.0 0.00 0.00 0.00 77 1017.7
20181214163815 48 291 10.0 19.0 0.00 0.00 0.00 77 1017.5
20181214163308 48 293 11.0 17.0 0.00 0.00 0.00 78 1017.4
20181214162816 48 291 10.0 22.0 0.00 0.00 0.00 78 1017.4
20181214162307 48 280 9.0 22.0 0.00 0.00 0.00 79 1017.3
20181214161812 47 291 12.0 20.0 0.00 0.00 0.00 79 1017.2